Temp
21 21 21 21 17 15 17 20 21 21 21 22 22 21 18 17 17 17 15 14 14 13 12 11 11 11 10 10 10 10 10 10 10 9 10 10 9 9 9 10 9 9 9 9 9 9 9 10 10
21 21 21 20 15 16 17 19 20 21 21 21 21 19 18 15 16 16 14 14 14 14 13 11 11 11 10 11 10 10 10 10 9 10 9 9 9 9 9 9 10 9 9 9 8 8 9 9 10
20 21 21 15 14 16 18 20 18 20 22 22 21 19 18 16 16 16 15 14 14 14 13 12 11 10 10 10 9 9 10 10 9 9 9 9 9 9 9 8 8 8 8 8 8 8 8 9 9
20 21 20 16 17 18 21 19 19 20 21 22 20 16 17 17 18 17 16 14 14 14 13 11 10 10 10 10 10 10 9 9 9 9 9 9 9 9 9 10 10 9 9 10 12 11 11 11 10
20 20 15 17 17 20 21 20 20 20 21 21 21 16 16 17 17 17 16 14 15 15 14 11 10 10 10 10 10 10 9 9 9 9 9 10 13 13 13 13 13 14 14 14 14 13 12 11 11
20 18 15 16 17 19 19 22 21 20 21 20 19 16 16 16 16 16 15 15 15 15 14 13 10 10 10 10 10 9 9 9 10 10 11 13 15 15 15 14 14 14 15 15 14 14 13 13 13
18 14 16 17 17 19 20 22 20 20 20 21 20 14 15 16 16 16 15 14 14 14 13 13 12 11 10 10 10 10 10 11 14 15 15 15 14 14 15 15 14 14 15 15 15 14 14 13 12
20 15 18 17 18 19 21 23 21 21 21 21 22 14 13 16 15 14 14 14 13 13 13 13 13 13 11 10 10 11 11 15 15 15 15 15 14 14 14 14 14 14 15 15 15 15 14 14 13
20 15 15 18 19 19 21 22 22 22 22 21 21 21 21 18 15 14 13 13 13 13 13 13 14 14 13 12 11 10 11 15 16 15 15 15 14 14 14 14 14 14 14 15 15 15 15 14 15
18 14 17 19 20 20 21 21 22 22 20 20 20 21 21 18 15 14 14 13 13 13 13 14 14 14 14 13 13 14 14 15 15 15 15 15 14 14 14 14 14 14 14 15 15 15 15 15 14
18 16 17 20 21 21 21 21 22 20 19 21 21 20 19 17 16 15 15 15 15 14 14 14 14 14 14 14 14 14 14 15 15 15 15 14 14 14 15 15 14 14 14 14 15 15 14 14 14
19 19 20 21 21 20 20 22 20 21 22 22 22 21 19 17 17 17 16 16 15 14 15 15 14 13 14 14 14 14 14 14 15 15 14 15 14 15 15 15 14 14 14 14 14 14 14 14 14
18 19 21 21 21 21 21 20 20 21 22 21 21 20 20 19 18 18 17 16 15 15 15 15 14 14 13 14 14 14 14 14 15 15 14 15 15 15 15 14 14 14 14 14 14 14 14 14 14
19 19 19 20 20 20 20 19 20 21 22 22 20 21 20 20 20 18 17 17 16 15 15 15 15 14 13 14 14 14 14 14 14 15 15 15 15 15 14 14 14 14 14 15 15 14 14 14 14
19 17 16 18 19 19 20 18 18 22 21 21 20 20 20 20 19 20 21 20 19 18 16 15 15 14 14 14 13 13 13 13 14 15 15 15 15 14 14 14 15 14 14 14 14 14 14 14 14
17 16 15 18 17 19 20 16 17 22 21 21 21 19 20 20 20 21 20 20 19 18 17 16 15 15 14 14 13 13 13 14 14 14 14 14 14 14 14 14 14 14 14 14 14 14 14 14 14
13 16 17 16 19 18 18 16 18 22 19 19 21 20 20 20 20 20 20 20 20 19 18 17 16 15 15 14 13 13 13 13 14 13 14 14 14 14 14 14 14 14 14 14 14 14 14 14 14
16 16 16 16 18 19 18 15 15 19 17 18 19 21 20 20 21 21 21 20 20 19 19 18 17 16 15 15 14 13 12 13 13 13 14 14 14 14 14 14 15 15 15 15 15 15 15 14 14
17 16 16 15 18 18 17 15 14 16 18 16 17 18 21 22 22 21 22 21 20 19 18 18 17 17 16 15 14 13 13 13 13 13 13 13 14 14 14 14 14 15 15 15 15 14 14 15 14
17 16 15 15 17 17 15 15 14 15 16 15 16 16 18 18 20 21 22 21 20 20 19 18 18 18 17 16 15 15 15 14 14 13 13 13 14 14 14 14 14 15 15 15 15 15 15 15 14
16 16 16 16 15 16 16 15 13 16 16 17 17 17 18 18 19 21 22 21 20 20 20 19 19 19 18 17 16 15 14 13 13 13 13 13 13 13 14 14 14 14 15 15 15 15 15 15 14
16 17 17 17 14 14 15 13 15 14 14 13 15 16 16 17 17 18 18 18 19 20 20 20 19 19 18 17 16 16 15 15 16 15 15 14 14 13 13 14 14 14 15 15 15 15 15 15 15
16 16 16 16 14 14 14 12 13 14 14 13 13 15 15 16 16 16 17 18 19 19 19 19 19 19 18 17 17 16 16 15 15 15 14 14 14 13 13 13 14 14 14 15 15 15 15 15 15
17 16 12 11 11 12 13 13 14 14 16 14 13 14 14 15 15 15 16 17 18 19 18 18 19 19 18 18 17 16 16 16 15 15 14 14 14 13 13 13 14 14 14 15 15 15 15 15 15
14 12 12 14 13 14 14 14 13 15 14 13 11 13 13 13 13 14 14 15 16 16 17 17 17 18 18 18 17 16 16 15 15 15 14 14 14 14 14 14 14 14 15 15 15 15 15 15 15
15 13 12 16 14 14 15 13 14 13 13 13 12 12 13 12 12 12 13 13 14 14 15 15 15 16 16 17 17 16 16 15 15 14 14 14 14 14 14 14 14 14 14 15 15 15 15 15 15
15 14 14 13 12 12 13 15 13 12 11 12 11 12 11 11 12 12 12 12 12 13 13 13 14 14 15 14 14 15 15 15 15 14 14 14 13 13 14 14 14 14 14 14 14 14 15 15 15
15 14 14 11 14 15 13 13 12 12 11 10 9 10 11 11 11 11 11 11 12 12 12 13 13 13 13 14 14 14 14 14 14 14 13 13 13 13 13 13 13 13 13 13 14 14 14 14 15
13 13 13 11 10 12 12 11 11 11 10 9 9 10 10 10 10 10 10 11 11 12 12 12 12 12 13 13 13 14 14 14 13 13 13 13 13 13 13 13 13 13 13 13 13 14 14 15 15
14 15 12 11 13 10 9 9 9 8 9 10 10 10 10 10 10 10 10 10 11 11 11 11 11 11 11 11 12 12 13 14 14 13 13 13 13 13 13 13 13 13 13 13 13 13 13 14 15
Height
1518 1517 1516 1516 1527 1529 1531 1521 1511 1512 1513 1512 1511 1511 1515 1518 1520 1531 1523 1525 1526 1529 1531 1535 1538 1541 1541 1542 1544 1544 1545 1545 1545 1545 1544 1544 1545 1544 1543 1542 1543 1543 1541 1541 1541 1539 1540 1541 1542
1517 1516 1516 1516 1534 1541 1533 1515 1514 1511 1511 1512 1512 1514 1516 1520 1520 1521 1522 1525 1528 1529 1531 1535 1538 1540 1541 1542 1543 1544 1544 1544 1544 1545 1546 1545 1545 1545 1544 1544 1544 1544 1544 1543 1543 1542 1542 1543 1543
1517 1516 1517 1521 1535 1538 1529 1513 1514 1510 1510 1511 1513 1515 1517 1519 1520 1520 1522 1524 1528 1529 1532 1535 1537 1539 1541 1542 1542 1544 1544 1544 1545 1545 1547 1547 1545 1546 1545 1545 1545 1544 1544 1544 1543 1542 1543 1543 1544
1516 1517 1519 1526 1530 1522 1513 1510 1512 1510 1511 1510 1512 1517 1519 1519 1520 1521 1523 1525 1528 1530 1532 1535 1537 1539 1540 1543 1543 1544 1545 1544 1546 1546 1547 1546 1546 1545 1545 1544 1545 1544 1545 1544 1543 1544 1545 1545 1547
1516 1517 1527 1529 1526 1516 1509 1507 1509 1508 1508 1511 1512 1518 1519 1520 1520 1521 1522 1525 1528 1530 1532 1534 1537 1538 1541 1542 1543 1545 1545 1545 1546 1546 1546 1545 1545 1545 1545 1545 1546 1546 1546 1546 1546 1547 1548 1548 1549
1516 1519 1534 1536 1526 1515 1507 1505 1508 1508 1507 1509 1512 1517 1520 1519 1520 1521 1523 1525 1529 1530 1533 1535 1537 1540 1541 1542 1543 1544 1544 1544 1544 1545 1546 1545 1546 1546 1547 1547 1548 1548 1548 1548 1548 1549 1550 1551 1551
1517 1524 1531 1526 1524 1516 1506 1506 1508 1508 1507 1508 1510 1517 1519 1519 1521 1521 1524 1527 1529 1532 1533 1535 1536 1538 1540 1541 1542 1544 1544 1544 1545 1545 1546 1546 1547 1548 1548 1549 1550 1550 1549 1550 1551 1551 1552 1552 1554
1517 1520 1524 1523 1524 1517 1506 1507 1508 1509 1509 1509 1509 1514 1517 1517 1520 1522 1525 1527 1529 1531 1532 1534 1536 1537 1539 1540 1541 1542 1543 1544 1545 1546 1547 1547 1548 1549 1549 1550 1551 1551 1552 1552 1552 1553 1553 1554 1555
1517 1528 1533 1523 1520 1515 1508 1507 1509 1508 1509 1508 1509 1510 1510 1513 1519 1522 1524 1526 1528 1530 1531 1533 1535 1536 1538 1539 1541 1542 1543 1544 1546 1547 1548 1548 1549 1550 1550 1551 1552 1552 1553 1553 1553 1554 1555 1555 1556
1516 1529 1523 1515 1515 1512 1509 1507 1508 1509 1509 1509 1509 1509 1510 1512 1516 1518 1520 1522 1524 1526 1529 1532 1534 1535 1537 1538 1540 1541 1542 1544 1546 1547 1548 1549 1550 1551 1551 1552 1553 1554 1554 1554 1554 1555 1556 1556 1557
1516 1522 1515 1511 1512 1511 1510 1509 1508 1508 1510 1507 1506 1508 1510 1511 1514 1516 1518 1519 1520 1525 1528 1529 1532 1534 1535 1537 1539 1540 1542 1544 1545 1547 1548 1549 1550 1551 1551 1552 1553 1554 1554 1555 1555 1556 1556 1556 1557
1517 1512 1513 1511 1511 1511 1509 1508 1508 1507 1506 1506 1507 1507 1508 1510 1511 1512 1514 1516 1519 1522 1524 1527 1530 1532 1534 1536 1537 1539 1541 1543 1544 1546 1547 1548 1549 1550 1551 1552 1552 1554 1554 1555 1555 1556 1556 1557 1558
1515 1512 1510 1509 1508 1507 1507 1506 1506 1504 1504 1504 1505 1506 1506 1507 1509 1511 1513 1516 1517 1518 1521 1524 1527 1529 1532 1534 1536 1538 1539 1541 1544 1545 1546 1547 1548 1549 1550 1551 1552 1553 1554 1555 1555 1556 1557 1557 1558
1513 1511 1509 1506 1505 1505 1505 1504 1505 1500 1500 1501 1501 1502 1503 1504 1504 1508 1510 1511 1513 1516 1517 1521 1523 1527 1529 1531 1534 1536 1538 1540 1542 1544 1546 1547 1547 1548 1550 1551 1552 1553 1554 1554 1555 1556 1557 1557 1557
1512 1513 1506 1502 1501 1504 1503 1505 1502 1495 1498 1499 1499 1500 1500 1500 1503 1503 1504 1506 1508 1511 1516 1517 1521 1524 1526 1528 1531 1533 1536 1538 1540 1541 1543 1545 1545 1547 1549 1550 1551 1552 1553 1554 1555 1556 1556 1557 1557
1514 1516 1522 1503 1502 1501 1504 1515 1496 1495 1496 1495 1495 1495 1495 1497 1498 1500 1502 1504 1507 1510 1512 1516 1518 1521 1523 1525 1528 1531 1534 1536 1537 1539 1541 1542 1544 1546 1547 1548 1550 1551 1552 1553 1554 1555 1556 1556 1556
1523 1528 1520 1514 1503 1502 1505 1509 1494 1494 1495 1492 1489 1489 1491 1493 1496 1498 1500 1502 1504 1506 1509 1513 1516 1518 1521 1524 1527 1530 1531 1532 1534 1537 1539 1541 1542 1544 1545 1547 1548 1550 1552 1553 1553 1554 1555 1555 1555
1527 1525 1521 1521 1509 1504 1507 1507 1498 1494 1491 1490 1486 1484 1486 1488 1490 1492 1495 1497 1500 1503 1506 1510 1512 1516 1519 1523 1525 1527 1528 1530 1532 1534 1536 1539 1540 1542 1543 1545 1547 1548 1549 1551 1552 1552 1553 1554 1554
1518 1521 1522 1514 1507 1508 1508 1511 1504 1496 1491 1488 1483 1480 1480 1483 1485 1487 1488 1492 1496 1500 1503 1506 1509 1512 1517 1519 1521 1523 1523 1526 1529 1531 1533 1535 1537 1539 1541 1542 1544 1546 1547 1549 1550 1550 1551 1552 1552
1516 1519 1522 1513 1507 1508 1513 1510 1506 1499 1499 1496 1489 1483 1479 1481 1483 1483 1484 1487 1491 1494 1498 1502 1505 1509 1512 1516 1518 1520 1522 1525 1527 1529 1531 1532 1534 1537 1538 1540 1541 1543 1544 1546 1547 1548 1549 1550 1551
1516 1517 1518 1518 1513 1509 1511 1516 1514 1504 1500 1497 1493 1490 1485 1484 1483 1481 1481 1483 1487 1491 1494 1498 1502 1506 1509 1513 1516 1518 1521 1522 1524 1525 1527 1529 1531 1533 1535 1537 1538 1540 1541 1543 1545 1546 1547 1548 1548
1519 1510 1511 1513 1521 1529 1513 1537 1517 1513 1508 1502 1499 1494 1492 1489 1487 1484 1481 1482 1485 1489 1493 1497 1501 1504 1507 1510 1513 1515 1517 1518 1520 1522 1525 1527 1529 1530 1531 1533 1534 1536 1537 1539 1541 1543 1543 1544 1545
1516 1510 1512 1512 1521 1524 1521 1533 1524 1514 1514 1511 1506 1502 1498 1495 1491 1487 1484 1483 1485 1489 1492 1495 1498 1502 1505 1507 1510 1512 1513 1516 1517 1519 1521 1522 1524 1525 1527 1528 1530 1531 1533 1535 1537 1538 1539 1540 1542
1509 1511 1517 1521 1527 1538 1520 1524 1526 1519 1513 1513 1510 1507 1504 1500 1496 1493 1490 1486 1485 1486 1490 1494 1496 1499 1502 1505 1507 1508 1510 1512 1514 1515 1516 1518 1520 1521 1522 1524 1525 1527 1528 1529 1532 1534 1535 1536 1538
1513 1524 1536 1530 1535 1529 1514 1521 1522 1513 1513 1513 1512 1509 1507 1505 1501 1498 1494 1490 1488 1487 1488 1492 1496 1498 1500 1502 1504 1505 1507 1508 1509 1511 1512 1513 1515 1516 1517 1519 1520 1521 1523 1525 1527 1528 1530 1531 1532
1514 1522 1537 1527 1536 1526 1513 1528 1523 1516 1516 1516 1515 1513 1509 1507 1506 1503 1501 1498 1496 1493 1491 1492 1494 1498 1500 1500 1501 1502 1503 1504 1505 1506 1507 1508 1509 1511 1513 1514 1515 1517 1518 1520 1522 1522 1524 1526 1526
1516 1523 1517 1524 1528 1533 1526 1521 1523 1522 1519 1518 1518 1516 1514 1513 1510 1508 1506 1504 1502 1499 1497 1496 1495 1496 1497 1498 1499 1499 1500 1500 1500 1501 1502 1502 1503 1504 1506 1507 1508 1510 1511 1513 1515 1515 1516 1518 1520
1513 1514 1524 1531 1528 1527 1529 1527 1537 1527 1526 1524 1523 1522 1520 1518 1516 1513 1511 1508 1506 1504 1502 1500 1499 1497 1496 1496 1495 1495 1495 1495 1495 1496 1496 1496 1497 1498 1499 1500 1501 1502 1503 1505 1507 1508 1509 1511 1512
1518 1520 1519 1525 1531 1533 1538 1542 1531 1530 1528 1527 1527 1526 1523 1521 1520 1518 1516 1513 1510 1508 1505 1503 1501 1499 1498 1496 1494 1492 1491 1490 1489 1489 1489 1490 1490 1491 1491 1491 1492 1493 1495 1496 1498 1499 1501 1502 1504
1512 1512 1519 1530 1525 1533 1540 1546 1534 1533 1531 1530 1530 1529 1527 1525 1523 1521 1519 1516 1512 1510 1507 1505 1503 1501 1499 1496 1494 1491 1488 1485 1484 1483 1483 1483 1483 1483 1483 1483 1483 1484 1485 1486 1488 1489 1491 1492 1493
Wind_Speed
7 1 3 2 4 4 3 4 1 3 1 2 5 6 8 5 2 3 10 15 10 15 17 19 16 15 14 14 13 10 11 12 11 9 10 12 12 13 13 13 14 14 17 15 16 16 19 20 20
3 1 1 2 4 2 4 4 4 2 6 10 11 8 5 2 2 6 19 15 8 14 21 24 20 17 16 16 15 13 12 10 10 10 10 9 13 10 12 12 13 13 15 15 15 16 19 18 16
4 5 2 4 3 4 3 3 5 7 7 5 5 8 3 3 4 10 9 17 14 17 22 22 19 16 16 15 14 12 11 11 10 10 10 10 9 10 12 11 12 12 14 14 14 15 16 17 17
7 1 3 3 5 5 4 7 5 7 6 5 12 6 3 3 3 10 14 17 14 17 22 21 18 17 16 16 14 14 13 11 11 9 8 10 9 8 9 11 11 12 12 14 16 16 17 17 17
4 2 3 1 4 4 4 8 17 4 8 9 7 4 2 8 4 7 15 16 17 19 20 19 18 16 16 16 16 14 12 13 12 11 11 9 9 9 9 10 10 12 13 14 15 16 16 15 13
3 2 3 2 4 5 6 19 8 5 10 13 8 7 5 8 11 10 15 17 15 18 20 19 19 18 17 17 15 14 13 12 11 10 9 9 9 9 9 9 10 11 12 13 14 14 13 12 11
4 3 3 2 4 5 4 12 5 7 8 6 15 5 4 14 11 11 15 15 14 15 15 16 19 21 17 17 15 15 13 11 10 9 9 9 9 8 9 9 9 10 11 11 11 13 13 13 11
2 4 2 2 3 5 5 4 5 8 1 15 9 7 6 19 16 19 17 15 13 13 13 13 17 17 19 16 14 15 13 11 9 9 9 9 8 8 8 8 8 8 8 9 10 10 11 11 11
1 4 1 2 6 6 8 3 3 4 9 4 5 4 4 20 23 24 24 20 18 17 15 14 17 16 18 17 18 14 14 11 10 10 9 9 9 8 8 7 7 7 7 7 8 8 9 9 9
3 3 4 4 3 4 4 5 2 3 4 3 5 6 10 22 27 30 29 28 25 23 21 17 16 17 17 17 16 15 14 11 10 10 10 10 8 8 8 7 6 6 6 6 7 8 8 8 8
3 4 4 9 5 5 4 4 6 5 3 9 11 14 20 23 26 28 28 26 24 22 21 20 17 16 17 18 17 15 13 12 11 11 11 11 10 8 7 7 6 6 6 6 6 7 7 8 8
2 9 4 7 6 3 4 4 7 4 6 1 8 14 22 25 26 27 28 27 27 25 22 20 18 17 16 16 18 15 14 14 13 13 13 11 10 9 8 7 6 5 6 6 6 6 7 8 9
4 3 9 10 14 10 6 6 7 11 13 10 7 19 25 26 25 25 23 24 24 26 24 22 21 20 18 16 17 16 13 15 13 14 14 12 10 9 8 6 6 6 6 6 6 7 7 8 7
6 7 14 14 16 11 5 7 2 9 13 10 10 20 27 29 27 27 27 27 28 26 25 23 23 22 20 19 18 16 13 13 15 15 14 13 11 10 9 9 8 7 7 7 7 7 8 8 8
9 6 8 7 7 4 1 7 8 25 19 18 15 19 30 31 31 30 23 27 26 25 24 25 24 24 24 22 18 16 15 15 16 14 13 12 11 12 12 11 9 7 7 8 8 9 8 8 8
4 4 6 6 3 2 7 8 9 10 12 12 15 26 31 35 35 31 29 27 26 24 25 24 24 25 25 24 22 21 19 17 15 14 13 13 13 15 15 13 10 9 9 9 10 9 9 9 8
6 1 2 8 3 2 3 7 9 12 10 20 24 16 30 34 37 35 32 30 27 25 23 25 27 25 25 25 25 24 21 19 16 16 15 15 14 15 16 14 11 11 10 11 11 11 10 9 8
3 2 3 4 5 1 2 10 9 25 12 17 22 24 18 30 35 33 35 34 30 27 25 25 26 25 24 23 25 26 25 23 21 20 18 16 15 16 17 16 13 12 12 13 12 12 11 10 10
3 3 3 4 2 4 3 5 9 12 26 26 20 13 17 23 25 30 35 37 35 32 31 30 31 28 27 27 28 29 30 27 25 23 20 18 17 17 18 17 16 15 14 13 14 14 13 12 11
4 2 5 5 3 2 5 5 5 11 8 12 22 30 18 2 7 11 21 37 38 35 35 34 32 30 27 27 26 27 27 27 25 23 23 21 21 20 19 19 18 17 16 16 16 16 15 14 12
2 3 2 3 5 3 0 6 7 5 15 25 26 27 28 29 19 7 12 31 39 39 37 35 32 29 28 27 26 25 25 27 28 28 26 25 23 23 22 20 19 20 19 18 18 18 17 15 15
3 2 1 1 4 2 3 2 4 5 8 10 26 30 30 28 27 24 9 13 34 37 37 33 30 29 29 28 28 26 26 28 29 27 24 23 23 23 23 22 22 21 21 21 20 20 20 19 17
6 1 2 3 2 3 2 5 5 3 7 7 16 31 35 34 30 30 23 8 17 29 36 33 30 28 28 29 29 28 28 26 25 27 25 24 23 24 24 25 24 25 25 23 23 23 23 21 20
2 3 6 4 3 2 4 4 3 2 4 3 12 29 32 33 34 31 28 14 8 18 31 33 33 29 26 27 29 29 29 27 27 27 27 26 24 24 25 26 27 27 27 26 25 25 25 24 23
6 5 3 2 2 4 2 3 5 2 4 6 9 26 31 32 34 33 35 32 24 17 10 24 29 30 28 27 28 29 28 28 28 28 28 27 26 26 26 26 28 29 28 29 28 28 28 28 27
1 5 4 3 2 2 2 5 2 4 15 18 21 25 29 31 31 32 31 31 30 28 19 3 15 24 28 30 30 30 30 30 30 29 29 29 30 29 27 28 29 29 30 30 31 32 32 31 31
1 0 3 2 2 2 1 5 8 6 7 17 20 27 29 29 29 29 28 28 27 28 25 20 11 4 13 22 30 32 33 34 33 31 31 32 31 31 30 30 30 30 30 31 32 35 36 35 34
3 2 1 2 2 2 2 3 1 0 5 7 12 21 25 27 27 27 27 26 24 25 25 18 16 14 10 11 16 24 30 33 34 34 33 32 31 31 32 32 33 33 32 32 31 34 36 38 37
2 2 0 3 4 3 3 2 5 2 5 8 10 19 23 24 24 24 25 26 24 22 25 25 21 19 14 13 13 15 21 24 26 28 30 31 29 29 29 31 33 34 35 34 35 35 36 38 39
1 0 3 4 3 1 4 1 6 5 11 12 14 17 18 18 19 21 23 25 26 26 24 25 24 20 19 19 20 18 14 13 20 26 27 26 25 25 26 28 31 32 34 36 37 38 38 40 41
Wind_Direction
341 280 289 311 52 61 285 260 248 123 69 95 65 95 119 79 113 199 143 162 156 180 175 161 154 169 165 141 140 135 132 129 127 121 117 105 97 102 100 95 99 97 86 90 88 84 101 99 102
5 317 335 109 89 59 272 298 133 187 140 111 94 99 50 96 129 160 151 165 179 179 168 149 160 158 158 156 154 147 144 133 134 117 110 112 102 94 100 103 96 92 92 87 92 92 103 106 97
347 346 29 96 118 179 220 183 229 147 146 130 104 89 97 140 179 173 170 163 180 176 168 159 165 157 164 150 157 152 151 140 132 124 123 118 113 115 104 105 107 98 94 95 92 96 103 107 104
351 19 55 86 234 247 244 170 224 140 117 112 121 70 92 200 160 177 169 167 177 175 172 166 170 169 164 158 154 158 158 144 141 137 128 119 122 114 116 113 108 104 104 100 102 107 117 115 118
12 38 51 305 261 279 278 178 174 163 142 138 138 155 87 143 178 191 172 174 176 173 172 169 169 173 172 165 163 160 163 158 157 149 149 149 134 122 113 107 104 98 97 99 105 117 130 134 126
56 78 54 279 297 265 262 190 178 179 148 141 107 118 165 190 193 185 181 178 177 173 175 183 170 168 175 172 174 172 167 166 161 158 147 137 121 115 111 103 99 94 93 93 98 104 111 118 117
104 82 207 257 276 303 267 175 178 178 151 150 143 105 170 176 190 197 187 184 180 181 182 187 182 180 181 175 180 176 175 173 167 154 142 133 128 122 116 109 102 99 94 96 99 104 106 107 115
91 94 288 269 300 279 1 121 148 149 174 130 172 170 191 185 182 185 186 194 196 196 199 204 201 190 183 186 188 194 182 179 167 159 152 145 138 127 118 114 106 100 103 107 107 109 113 115 117
175 63 314 270 346 300 8 72 80 107 138 121 159 173 243 174 176 181 185 195 204 208 212 216 207 207 195 191 192 193 191 182 174 167 167 160 152 143 133 123 116 116 122 121 119 124 119 114 117
106 110 233 205 285 287 353 23 25 126 129 101 164 185 171 169 179 186 193 198 204 207 207 212 208 212 205 202 201 198 200 194 183 179 179 174 165 158 147 135 136 141 140 145 148 146 143 130 123
192 193 210 287 297 224 332 323 342 130 215 212 201 176 172 176 186 195 205 213 214 213 212 210 209 205 211 210 208 207 207 202 193 190 189 186 186 176 166 159 157 158 162 166 164 155 153 146 143
266 262 235 294 327 243 180 283 300 231 248 339 248 220 188 189 193 200 207 213 215 217 222 219 211 212 212 212 213 208 209 213 208 200 199 200 197 191 193 174 169 178 175 182 175 169 165 157 158
196 275 305 292 300 300 252 232 240 269 269 285 263 206 204 203 205 207 211 215 220 223 225 226 221 217 219 214 210 211 214 217 213 206 210 212 207 204 201 194 189 194 189 191 183 181 179 173 171
313 300 295 294 290 288 270 276 285 253 263 284 246 215 215 213 212 207 209 215 220 227 230 228 227 225 226 228 218 220 224 222 223 216 215 217 216 218 218 213 203 196 196 195 188 187 188 188 185
296 316 309 271 261 240 44 313 244 268 273 266 248 228 219 220 216 215 225 219 223 227 228 230 230 229 230 237 235 236 237 229 226 222 222 222 222 224 224 216 204 203 205 203 201 205 204 200 194
8 40 3 302 96 252 148 272 278 301 263 277 275 240 226 224 222 225 226 228 227 228 227 226 230 231 233 236 238 241 239 235 230 228 229 228 225 221 223 217 207 210 212 211 213 214 213 213 208
14 306 298 319 325 90 126 269 271 309 289 294 296 282 233 231 229 229 231 232 232 232 229 228 228 232 236 238 239 241 241 242 238 235 232 229 229 225 224 222 216 218 218 217 221 220 222 224 221
267 314 291 257 311 42 275 273 304 320 329 309 296 281 255 235 237 240 238 234 233 233 232 232 234 234 236 239 240 240 240 240 239 238 237 234 233 231 227 225 223 224 225 224 226 227 228 229 230
228 224 259 259 248 352 295 324 320 19 37 17 1 293 262 253 255 245 241 233 230 230 231 230 231 234 231 231 234 236 236 236 238 241 243 242 239 234 233 230 228 231 231 231 230 230 233 233 233
244 301 296 292 321 85 18 29 309 19 11 14 32 41 45 335 288 260 238 231 229 230 230 230 233 236 236 237 244 245 246 245 247 250 250 248 244 240 237 234 233 235 235 233 234 234 236 235 232
270 220 253 237 326 12 123 11 355 341 31 37 43 45 49 44 34 334 250 230 228 228 231 232 234 240 239 243 244 247 246 245 245 243 243 242 244 241 241 240 238 237 237 237 239 239 238 238 236
291 183 114 345 48 246 35 251 330 333 9 18 37 44 43 43 44 42 26 244 225 227 232 235 238 243 241 244 246 251 257 253 252 252 251 249 248 247 246 245 243 241 241 240 240 241 240 239 237
234 290 246 199 111 27 317 96 267 5 33 3 18 53 54 52 49 43 41 48 232 232 228 234 239 243 246 250 252 254 257 266 267 261 260 258 253 251 251 251 249 245 241 241 241 243 243 242 240
349 18 34 52 97 11 232 123 255 186 145 58 48 57 56 55 52 50 47 53 47 228 232 233 235 245 252 256 257 258 262 269 268 266 262 259 257 255 254 254 253 250 246 243 242 244 246 246 246
63 48 340 357 11 214 140 69 242 125 100 108 73 61 58 56 52 49 46 45 44 36 234 238 239 241 254 262 263 265 271 273 273 273 270 267 266 263 261 260 258 256 252 247 244 243 245 246 248
246 143 158 271 219 271 330 140 121 86 94 82 72 66 59 54 51 50 48 47 46 46 45 35 245 250 251 256 266 269 271 274 277 278 278 275 273 273 272 269 265 264 260 254 251 248 247 248 249
1 260 191 124 8 60 228 73 51 23 50 62 59 61 57 54 49 48 47 47 45 45 42 40 35 301 266 264 262 264 270 271 276 281 282 281 280 277 275 270 266 265 264 262 257 253 250 250 250
196 230 345 13 237 231 2 77 93 117 75 53 50 63 62 58 53 49 47 47 48 48 46 43 38 30 5 312 286 271 266 271 275 276 277 278 281 279 277 273 270 267 263 261 261 259 256 253 251
354 308 74 130 141 182 150 293 359 154 102 92 69 71 68 63 55 48 46 46 46 47 44 45 46 40 31 16 350 304 280 278 276 278 278 277 280 280 278 277 274 269 265 262 261 260 259 257 256
247 209 116 123 252 148 133 243 14 30 56 75 73 71 67 59 49 43 38 36 36 36 35 34 34 36 36 35 32 17 358 309 286 281 280 283 287 285 281 279 276 272 267 264 261 261 261 261 258